Regional Weather Roundup
Issued by NWS

Home | Current Version | Previous Version | Text Only | Print | Product List | Glossary On
Versions: 1 2 3 4 5 6 7 8 9 10 11 12 13 14 15 16 17 18 19 20 21 22 23 24 25 26 27 28 29 30 31 32 33 34 35 36 37 38 39 40 41 42 43 44 45 46 47 48 49 50
600
ASUS44 KFWD 231515
RWRTX
NORTH TEXAS HOURLY WEATHER ROUNDUP
NATIONAL WEATHER SERVICE FORT WORTH TX
900 AM CST THU NOV 23 2017

NOTE: "FAIR" INDICATES FEW OR NO CLOUDS BELOW 12,000 FEET WITH NO
SIGNIFICANT WEATHER AND/OR OBSTRUCTIONS TO VISIBILITY.

TXZ118-119-231600-
DALLAS/FORT WORTH METROPLEX

CITY           SKY/WX    TMP DP  RH WIND       PRES   REMARKS
DFW AIRPORT    MOSUNNY   46  32  58 S3        30.18S
DALLAS LOVE    MOSUNNY   45  33  63 VRB3      30.21S
FTW MEACHAM    SUNNY     46  31  55 S3        30.19S
DAL-EXECUTIVE  SUNNY     49  29  46 CALM      30.20R
FTW-ALLIANCE   MOSUNNY   47  34  60 CALM      30.18S
FTW-NAS-JRB    CLOUDY    45  28  51 SE3       30.20S
FTW-SPINKS     SUNNY     45  34  65 CALM      30.21S
ARLINGTON      SUNNY     43  33  68 CALM      30.21R
GRAND PRAIRIE  SUNNY     45  28  53 CALM      30.22R
ADDISON        SUNNY     46  30  53 CALM      30.20F
MESQUITE       SUNNY    N/A N/A N/A CALM      30.22R
LANCASTER      SUNNY     45  29  53 CALM      30.23S
$$

TXZ091>094-102>105-117-120-121-131>134-231600-
NORTH CENTRAL TEXAS

CITY           SKY/WX    TMP DP  RH WIND       PRES   REMARKS
SHRMAN/DENISON SUNNY     46  32  56 CALM      30.20S
GAINESVILLE    SUNNY     40  29  66 CALM      30.19F
BOWIE          SUNNY     43  31  62 CALM      30.17S
BRIDGEPORT     SUNNY     44  31  60 CALM      30.19S
DECATUR        SUNNY     49  21  33 SW6       30.16S
DENTON         SUNNY     42  30  62 CALM      30.19S
MCKINNEY       SUNNY     41  31  67 CALM      30.20F
BONHAM         SUNNY     43  27  54 CALM      30.20S
GREENVILLE     SUNNY     46  32  57 CALM      30.22R
ROCKWALL       SUNNY     47  35  62 CALM      30.21S
TERRELL        SUNNY     44  31  60 CALM      30.22R
WAXAHACHIE     SUNNY     46  30  53 CALM      30.22S
CLEBURNE       SUNNY     45  30  57 SW3       30.21S
GRANBURY       SUNNY     42  35  76 CALM      30.21F
$$

TXZ083>090-098>101-113>116-127>130-139>142-154-155-231600-
WESTERN NORTH TEXAS

CITY           SKY/WX    TMP DP  RH WIND       PRES   REMARKS
WICHITA FALLS  SUNNY     44  26  49 SW9       30.15R WCI  39
WF-KICKAPOO    SUNNY     44  26  49 W7        30.18S WCI  40
VERNON         CLOUDY    43  20  40 CALM      30.16R
ABILENE        SUNNY     50  28  42 S8        30.19R
ABILENE-DYESS  SUNNY     48  31  53 CALM      30.18R
GRAHAM           N/A     43  28  55 CALM      30.16F
BRECKENRIDGE   SUNNY     51  26  38 SW6       30.18S
CISCO          SUNNY     54  25  32 SW10      30.19R
EASTLAND       SUNNY     44  29  53 CALM      30.19R
RANGER         SUNNY     49  26  40 SW8       30.19R
MINERAL WELLS  CLOUDY    41  28  60 CALM      30.18R
STEPHENVILLE   SUNNY     47  30  51 CALM      30.22R
COMANCHE       SUNNY     47  32  56 CALM      30.21R
BROWNWOOD      SUNNY     39  27  60 CALM      30.22S
COLEMAN        SUNNY     48  29  46 CALM      30.20S
$$

TXZ143>147-156>162-174-175-231600-
CENTRAL TEXAS

CITY           SKY/WX    TMP DP  RH WIND       PRES   REMARKS
WACO           SUNNY     43  30  60 CALM      30.23R
WACO-TSTC      SUNNY     43  36  75 CALM      30.23S
WACO-MCGREGOR  SUNNY     46  30  53 CALM      30.23R
HILLSBORO      SUNNY     46  30  55 CALM      30.21R
CORSICANA      SUNNY     46  32  58 CALM      30.24R
MEXIA          SUNNY     46  31  56 CALM      30.22R
HEARNE         SUNNY     40  32  73 CALM      30.25R
CAMERON        SUNNY     44  32  63 CALM      30.24S
TEMPLE         SUNNY     44  32  62 CALM      30.23S
KILLEEN        SUNNY     50  25  37 W8        30.20S
KILLEEN-SKYLRK SUNNY     44  30  57 CALM      30.22S
FORT HOOD      SUNNY     48  26  43 CALM      30.18S
GATESVILLE     SUNNY     43  30  61 CALM      30.23S
HAMILTON       SUNNY     49  30  47 SW3       30.21S
LAMPASAS       SUNNY     49  32  52 CALM      30.20S
$$

TXZ095>097-106>112-122>126-135>138-148>153-164>167-231600-
EAST TEXAS

CITY           SKY/WX    TMP DP  RH WIND       PRES   REMARKS
PARIS          SUNNY     41  31  67 CALM      30.21S
SULPHUR SPRNGS SUNNY     43  34  70 CALM      30.24S
MOUNT PLEASANT SUNNY     39  33  80 CALM      30.24R
GILMER         SUNNY     43  33  67 CALM      30.22R
MINEOLA        SUNNY     43  36  75 CALM      30.22R
TYLER          SUNNY     46  31  55 CALM      30.21R
LONGVIEW       SUNNY     42  37  82 CALM      30.22R
MARSHALL       SUNNY     42  33  70 CALM      30.25R
ATHENS         SUNNY     41  30  65 CALM      30.20F
PALESTINE      SUNNY     44  35  68 CALM      30.24R
JACKSONVILLE   SUNNY     46  32  56 CALM      30.22S
HENDERSON      SUNNY     42  35  75 CALM      30.23S
CENTER         SUNNY     42  32  66 CALM      30.23S
NACOGDOCHES    SUNNY     44  38  79 CALM      30.23R
LUFKIN         SUNNY     45  38  76 E5        30.22S
$$

SUPPLEMENTAL OBSERVATIONS (NWS FORT WORTH AREA)

CITY           SKY/WX    TMP DP  RH WIND       PRES   REMARKS
DENISON DAM      N/A     45  32  61 CALM        N/A
CADDO GRASSLND   N/A     43  32  65 CALM        N/A
PAT MAYSE LAKE   N/A     39  30  70 NW1         N/A
GREENVILLE       N/A     46  32  57 SE2         N/A
CEDAR HILL       N/A     52  25  35 S2          N/A
LBJ GRASSLAND    N/A     48  25  40 S5          N/A
POSSUM KINGDOM   N/A     52  30  43 SW6         N/A
GRANBURY         N/A     45  34  65 NE1         N/A
COMANCHE         N/A     52  32  46 NE1         N/A
TEMPLE           N/A     48  32  53 W3          N/A
LAKE LIMESTONE   N/A     50  36  57 CALM        N/A
ATHENS           N/A     52  32  46 E1          N/A
$$

SUPPLEMENTAL OBSERVATIONS (NWS NORMAN AREA)

CITY           SKY/WX    TMP DP  RH WIND       PRES   REMARKS
GOODLETT         N/A     48  29  48 W6        30.15S
ODELL            N/A     44  25  48 NW2       30.16S
CROWELL          N/A     48  29  47 NW5       30.17S
KNOX CITY        N/A     48  28  45 SW6       30.18S
SEYMOUR          N/A     45  28  51 SW9       30.17S
MILLERS CREEK    N/A     46  32  57 SW9         N/A
$$

SUPPLEMENTAL OBSERVATIONS (NWS SAN ANGELO AREA)

CITY           SKY/WX    TMP DP  RH WIND       PRES   REMARKS
WEINERT          N/A     48  28  46 SW6       30.18S
HASKELL          N/A     46  28  48 SW8       30.18R
THROCKMORTON     N/A     51  32  49 SW14      30.17F
STAMFORD         N/A     49  29  46 SW7       30.19S
CLYDE            N/A     55  27  33 SW8       30.20S
HAMBY            N/A     52  30  43 S6          N/A
IVIE RESERVOIR   N/A     45  32  61 W5          N/A
COLORADO BEND    N/A     48  25  40 W2          N/A
$$

SUPPLEMENTAL OBSERVATIONS (NWS SHREVEPORT AREA)

CITY           SKY/WX    TMP DP  RH WIND       PRES   REMARKS
CLARKSVILLE      N/A     43  32  65 E2          N/A
TEXARKANA        N/A     43  32  65 SE1         N/A
LINDEN           N/A     46  32  57 E1          N/A
CADDO LAKE       N/A     45  37  76 CALM        N/A
GILMER           N/A     46  34  61 SE1         N/A
HENDERSON        N/A     46  36  66 S2          N/A
S SABINE NF      N/A     46  32  57 NE3         N/A
$$

SUPPLEMENTAL OBSERVATIONS ARE A COLLECTION OF AUTOMATED INSTRUMENTS
THAT ARE MAINTAINED BY A VARIETY OF FEDERAL AND STATE AGENCIES.
CERTAIN ELEMENTS...SUCH AS HUMIDITY VALUES AND SUSTAINED WIND
SPEEDS...MAY BE APPROXIMATED.





USA.gov is the U.S. government's official web portal to all federal, state and local government web resources and services.